TimeEDT,TemperatureF,Dew PointF,Humidity,Sea Level PressureIn,VisibilityMPH,Wind Direction,Wind SpeedMPH,Gust SpeedMPH,PrecipitationIn,Events,Conditions,WindDirDegrees,DateUTC
12:15 AM,49.5,45.0,84,30.05,10.0,NE,4.6,-,N/A,,Clear,50,2013-09-23 04:15:00
12:35 AM,49.1,44.8,85,30.05,10.0,NE,3.5,-,N/A,,Clear,50,2013-09-23 04:35:00
12:55 AM,49.1,44.8,85,30.06,10.0,NE,3.5,-,N/A,,Clear,50,2013-09-23 04:55:00
1:15 AM,46.4,43.7,90,30.06,10.0,Calm,Calm,-,N/A,,Clear,0,2013-09-23 05:15:00
1:35 AM,45.5,43.3,92,30.06,10.0,Calm,Calm,-,N/A,,Clear,0,2013-09-23 05:35:00
1:55 AM,45.1,43.7,95,30.06,10.0,Calm,Calm,-,N/A,,Clear,0,2013-09-23 05:55:00
2:15 AM,45.1,43.7,95,30.06,10.0,Calm,Calm,-,N/A,,Clear,0,2013-09-23 06:15:00
2:35 AM,43.7,43.0,97,30.07,10.0,Calm,Calm,-,N/A,,Clear,0,2013-09-23 06:35:00
2:55 AM,42.8,42.3,98,30.07,10.0,Calm,Calm,-,N/A,,Clear,0,2013-09-23 06:55:00
3:15 AM,42.4,42.1,99,30.07,10.0,Calm,Calm,-,N/A,,Clear,0,2013-09-23 07:15:00
3:35 AM,43.0,42.8,99,30.07,10.0,NNW,4.6,-,N/A,,Clear,340,2013-09-23 07:35:00
3:55 AM,43.9,43.7,99,30.07,10.0,Calm,Calm,-,N/A,,Clear,0,2013-09-23 07:55:00
4:15 AM,42.8,42.3,98,30.07,10.0,Calm,Calm,-,N/A,,Clear,0,2013-09-23 08:15:00
4:35 AM,43.3,43.0,99,30.07,10.0,Calm,Calm,-,N/A,,Clear,0,2013-09-23 08:35:00
4:55 AM,42.6,42.1,98,30.07,10.0,Calm,Calm,-,N/A,,Clear,0,2013-09-23 08:55:00
5:15 AM,43.2,42.6,98,30.08,10.0,Calm,Calm,-,N/A,,Clear,0,2013-09-23 09:15:00
5:35 AM,42.1,41.7,99,30.08,10.0,Calm,Calm,-,N/A,,Clear,0,2013-09-23 09:35:00
5:55 AM,42.3,42.3,100,30.09,10.0,Calm,Calm,-,N/A,,Clear,0,2013-09-23 09:55:00
6:15 AM,43.7,42.8,97,30.09,10.0,Calm,Calm,-,N/A,,Clear,0,2013-09-23 10:15:00
6:35 AM,41.7,41.0,97,30.09,10.0,Calm,Calm,-,N/A,,Clear,0,2013-09-23 10:35:00
6:55 AM,41.4,41.2,99,30.10,10.0,Calm,Calm,-,N/A,,Clear,0,2013-09-23 10:55:00
7:15 AM,43.0,42.8,99,30.10,10.0,NE,3.5,-,N/A,,Clear,40,2013-09-23 11:15:00
7:20 AM,42.8,42.8,100,30.10,10.0,Calm,Calm,-,N/A,,Clear,0,2013-09-23 11:20:00
7:47 AM,44.6,42.8,93,30.11,10.0,Calm,Calm,-,N/A,,Clear,0,2013-09-23 11:47:00
8:47 AM,51.8,46.4,82,30.13,10.0,Calm,Calm,-,N/A,,Clear,0,2013-09-23 12:47:00
9:47 AM,55.4,48.2,77,30.15,10.0,East,3.5,-,N/A,,Clear,80,2013-09-23 13:47:00
10:47 AM,57.2,46.4,67,30.15,10.0,East,8.1,-,N/A,,Scattered Clouds,90,2013-09-23 14:47:00
11:50 AM,60.8,44.6,55,30.15,10.0,East,6.9,-,N/A,,Scattered Clouds,90,2013-09-23 15:50:00
12:50 PM,62.6,44.6,52,30.15,10.0,NE,6.9,-,N/A,,Scattered Clouds,50,2013-09-23 16:50:00
1:50 PM,62.6,44.6,52,30.14,10.0,ENE,6.9,-,N/A,,Clear,60,2013-09-23 17:50:00
2:45 PM,62.6,44.6,52,30.12,10.0,East,5.8,-,N/A,,Clear,100,2013-09-23 18:45:00
3:50 PM,64.4,44.6,49,30.10,10.0,NE,5.8,-,N/A,,Clear,50,2013-09-23 19:50:00
4:50 PM,64.4,46.4,52,30.10,10.0,NNE,6.9,-,N/A,,Clear,20,2013-09-23 20:50:00
6:45 PM,60.8,44.6,55,30.10,10.0,East,5.8,-,N/A,,Clear,100,2013-09-23 22:45:00
7:35 PM,56.3,45.5,67,30.10,10.0,East,3.5,-,N/A,,Clear,100,2013-09-23 23:35:00
7:55 PM,55.2,45.5,70,30.10,10.0,East,3.5,-,N/A,,Clear,100,2013-09-23 23:55:00
8:15 PM,53.6,45.9,75,30.10,10.0,East,3.5,-,N/A,,Clear,100,2013-09-24 00:15:00
8:35 PM,53.1,45.7,76,30.11,10.0,Calm,Calm,-,N/A,,Clear,0,2013-09-24 00:35:00
8:55 PM,53.1,45.7,76,30.11,10.0,East,3.5,-,N/A,,Clear,90,2013-09-24 00:55:00
9:15 PM,51.8,46.0,81,30.11,10.0,Calm,Calm,-,N/A,,Clear,0,2013-09-24 01:15:00
9:35 PM,51.6,45.5,80,30.11,10.0,East,3.5,-,N/A,,Clear,90,2013-09-24 01:35:00
9:55 PM,50.9,45.5,82,30.12,10.0,Calm,Calm,-,N/A,,Clear,0,2013-09-24 01:55:00
10:15 PM,50.0,45.3,84,30.13,10.0,Calm,Calm,-,N/A,,Clear,0,2013-09-24 02:15:00
10:35 PM,50.5,45.7,83,30.13,10.0,Calm,Calm,-,N/A,,Clear,0,2013-09-24 02:35:00
10:55 PM,49.6,45.0,84,30.13,10.0,Calm,Calm,-,N/A,,Clear,0,2013-09-24 02:55:00
11:15 PM,47.3,45.0,92,30.13,10.0,Calm,Calm,-,N/A,,Clear,0,2013-09-24 03:15:00
11:35 PM,46.2,44.4,93,30.13,10.0,Calm,Calm,-,N/A,,Clear,0,2013-09-24 03:35:00
11:55 PM,46.0,44.4,94,30.13,10.0,Calm,Calm,-,N/A,,Clear,0,2013-09-24 03:55:00